User: anonymous   Login
Location: Oshawa
(43.9000°N, 78.8670°W)
Time: 21:24:59
(UTC-05:00)
Language:

Thor Agena Rocket - Orbit

View from above orbital plane
View from above orbital plane
View from above satellite
View from above satellite

Ground track
Ground track

The orbit data is extracted from the following two-line orbital elements,

1 00733U 64002A   15064.37655317  .00000289  00000-0  12466-3 0  9999
2 00733 099.0331 199.0957 0034942 084.8962 275.6206 14.32040097662821
Epoch (UTC): 05 March 2015 09:02:14
Eccentricity: 0.0034942
inclination: 99.0331°
perigee height: 760 km
apogee height: 810 km
right ascension of ascending node: 199.0957°
argument of perigee: 84.8962°
revolutions per day: 14.32040097
mean anomaly at epoch: 275.6206°
orbit number at epoch: 66282

The dashed part of the orbit path shows where the satellite is in the earth's shadow,  

DLR